Regional Weather Roundup
Issued by NWS Goodland, KS

Home | Current Version | Previous Version | Graphics & Text | Print | Product List | Glossary On
Versions: 1 2 3 4 5 6 7 8 9 10 11 12 13 14 15 16 17 18 19 20 21 22 23 24 25 26 27 28 29 30 31 32 33 34 35 36 37 38 39 40 41 42 43 44 45 46 47 48 49 50
000
ASUS43 KGLD 251159
RWRGLD

GOODLAND FORECAST AREA HOURLY WEATHER ROUNDUP
NATIONAL WEATHER SERVICE GOODLAND KS
500 AM MST THU DEC 25 2014

...OFFICIAL OBSERVATIONS...

CITY           SKY/WX    TMP DP  RH WIND       PRES   REMARKS
GOODLAND KS    MOCLDY    31  23  72 W6        29.38F
HILL CITY KS   CLOUDY    32  18  56 S7        29.48S
IMPERIAL NEB   MOCLDY    26  20  77 VRB3      29.40S
MCCOOK NEB     CLEAR     26  21  81 E8        29.42F
AKRON CO       CLOUDY    36  23  59 W3        29.39R
BURLINGTON CO  CLOUDY    32  23  69 W8        29.38F
LIMON CO       CLOUDY    23  21  92 CALM      29.41F
$$

...UNOFFICIAL OBSERVATIONS...

CITY           SKY/WX    TMP DP  RH WIND       PRES   REMARKS
COLBY KS       CLEAR     27  23  86 S5        29.41F
GOVE KS          N/A     27  32 100 MISG        N/A
NORTON KS      CLEAR     28  18  64 S7        29.46S
SHARON SPRINGS   N/A     27  22  81 SW10        N/A  WCI  17
TRIBUNE KS     MOCLDY    28  25  86 SW5       29.43F
KIT CARSON CO    N/A     27  22  82 MISG        N/A
YUMA CO          N/A     26  21  81 SW6         N/A
$$


USA.gov is the U.S. government's official web portal to all federal, state and local government web resources and services.